Weather History for LFQV - April, 2014

Change the Weather History Date:

Wednesday, April 2, 2014

  Actual Average Record
Temperature  
Mean Temperature 52 °F -  
Max Temperature 69 °F - - ()
Min Temperature 35 °F - - ()
Degree Days  
Heating Degree Days 13    
Growing Degree Days 2 (Base 50)    
Moisture  
Dew Point 44 °F    
Average Humidity 70    
Maximum Humidity 99    
Minimum Humidity 40    
Precipitation  
Precipitation 0.00 in - - ()
Sea Level Pressure  
Sea Level Pressure 29.74 in    
Wind  
Wind Speed 2 mph ()    
Max Wind Speed 9 mph    
Max Gust Speed -    
Visibility 6.3 miles    
Events      
T = Trace of Precipitation, MM = Missing Value Source: Averaged Metar Reports

Daily Weather History Graph

Daily Weather History Graph

Search for Another Location

Airport or City:

Trip Planner

Search our weather history database for the weather conditions in past years. The results will help you decide how hot, cold, wet, or windy it might be!

Date:

Astronomy

Apr. 02, 2014 Rise Set
Actual Time 7:16 AM CEST 8:14 PM CEST
Civil Twilight 6:44 AM CEST 8:47 PM CEST
Nautical Twilight 6:04 AM CEST 9:26 PM CEST
Astronomical Twilight 5:23 AM CEST 10:08 PM CEST
Moon 8:35 AM CEST (4/2) 11:39 PM CEST (4/2)
Length of Visible Light 14h 03m
Length of Day
12h 57m
Waxing Crescent, 8% of the Moon is Illuminated
Apr 2
Waxing Crescent
Apr 7
First Quarter
Apr 15
Full
Apr 22
Last Quarter
Apr 29
New

Hourly Weather History & Observations

Time (CEST) Temp. Dew Point Humidity Pressure Visibility Wind Dir Wind Speed Gust Speed Precip Events Conditions
12:00 AM 43 °F 40 °F 84% 29.85 in 12 mi South 1.2 mph - -   Clear
1:00 AM 42 °F 40 °F 88% 29.84 in 10 mi Calm Calm - -   Clear
2:00 AM 41 °F 40 °F 92% 29.84 in 10 mi Calm Calm - -   Clear
3:00 AM 38 °F 37 °F 96% 29.83 in 4 mi SSE 2.3 mph - -   Clear
5:00 AM 37 °F 36 °F 92% 29.81 in 1 mi Calm Calm - -   Mist
6:00 AM 36 °F 35 °F 95% 29.80 in 6 mi Calm Calm - -   Clear
7:00 AM 37 °F 37 °F 98% 29.80 in 1 mi Calm Calm - -   Mist
8:00 AM 38 °F 37 °F 97% 29.80 in 4 mi WSW 1.2 mph - -   Clear
9:00 AM 45 °F 45 °F 99% 29.79 in 6 mi Calm Calm - -   Clear
10:00 AM 54 °F 46 °F 67% 29.77 in 9 mi SE 8.1 mph - -   Clear
11:00 AM 58 °F 46 °F 55% 29.75 in - ESE 8.1 mph - -  
12:00 PM 61 °F 48 °F 53% 29.74 in - SE 5.8 mph - -  
1:00 PM 64 °F 50 °F 51% 29.72 in - SE 6.9 mph - -  
3:00 PM 66 °F 49 °F 45% 29.69 in - SE 9.2 mph - -  
4:00 PM 69 °F 50 °F 40% 29.67 in - South 6.9 mph - -  
5:00 PM 67 °F 48 °F 40% 29.66 in - SSE 6.9 mph - -  
6:00 PM 67 °F 50 °F 43% 29.65 in - SE 5.8 mph - -  
7:00 PM 66 °F 49 °F 43% 29.65 in - South 3.5 mph - -  
8:00 PM 61 °F 49 °F 55% 29.65 in - SSE 3.5 mph - -  
9:00 PM 56 °F 50 °F 73% 29.65 in - East 3.5 mph - -   Overcast
10:00 PM 55 °F 48 °F 70% 29.66 in - Calm Calm - -  
11:00 PM 55 °F 49 °F 72% 29.65 in - South 5.8 mph - -   Overcast